"2010-10-20 00:00:00",262381,3.478,128.2,0.669,0.057,15.42,105.9223,14.43,15.36,24.3,0,110.5,13.28,15.24,90.2
"2010-10-20 00:00:30",262382,3.484,127.6,0.908,0.045,15.47,105.9181,14.42,15.36,24.28,0,110.5,13.27,15.23,89.6
"2010-10-20 00:01:00",262383,3.587,125,1.319,0.102,15.52,105.9177,14.42,15.37,24.23,0,110.5,13.27,15.22,87.0
"2010-10-20 00:01:30",262384,3.792,126.8,0.841,0.043,15.62,105.9198,14.43,15.36,24.23,0,110.5,13.28,15.23,88.8
"2010-10-20 00:02:00",262385,3.758,126.6,0.582,0.065,15.58,105.924,14.44,15.35,24.29,0,110.5,13.28,15.24,88.6
"2010-10-20 00:02:30",262386,3.765,128.2,0.681,0.045,15.55,105.9264,14.44,15.36,24.26,0,110.5,13.28,15.25,90.2
"2010-10-20 00:03:00",262387,3.693,129.3,0.627,0.057,15.52,105.9297,14.45,15.36,24.3,0,110.5,13.28,15.26,91.3
"2010-10-20 00:03:30",262388,3.653,129.4,0.682,0.046,15.56,105.9344,14.46,15.35,24.33,0,110.5,13.28,15.27,91.4
"2010-10-20 00:04:00",262389,3.663,129.7,0.546,0.042,15.6,105.9368,14.47,15.35,24.35,0,110.5,13.28,15.27,91.7
"2010-10-20 00:04:30",262390,3.587,130.3,0.904,0.039,15.62,105.9386,14.48,15.36,24.32,0,110.5,13.28,15.28,92.3
"2010-10-20 00:05:00",262391,3.544,131.7,0.675,0.054,15.68,105.941,14.48,15.36,24.35,0,110.5,13.29,15.28,93.7
"2010-10-20 00:05:30",262392,3.484,132,0.879,0.049,15.71,105.9416,14.48,15.39,24.39,0,110.5,13.29,15.29,94.0
"2010-10-20 00:06:00",262393,4.564,136.2,6.494,1.344,17.57,105.9431,14.49,15.43,24.27,0,110.5,13.25,15.29,98.2
"2010-10-20 00:06:30",262394,4.632,138.3,7.584,1.389,17.71,105.9464,14.5,15.44,24.35,0,110.5,13.25,15.30,100.3
"2010-10-20 00:07:00",262395,3.472,133.6,1.773,0.107,15.36,105.9473,14.5,15.34,24.24,0,110.5,13.29,15.30,95.6
"2010-10-20 00:07:30",262396,3.319,135,1.497,0.062,15.18,105.9494,14.5,15.32,24.23,0,110.5,13.29,15.31,97.0
"2010-10-20 00:08:00",262397,3.342,134.1,0.713,0.055,15.18,105.9497,14.5,15.34,24.25,0,110.5,13.25,15.31,96.1
"2010-10-20 00:08:30",262398,4.734,139.5,7.175,1.389,17.69,105.9469,14.5,15.49,24.43,0,110.5,13.25,15.30,101.5
"2010-10-20 00:09:00",262399,3.967,135.4,5.971,1.249,16.2,105.9393,14.48,15.38,24.34,0,110.5,13.25,15.28,97.4
"2010-10-20 00:09:30",262400,4.461,139.3,6.982,1.381,17.04,105.9345,14.46,15.43,24.37,0,110.5,13.25,15.27,101.3
"2010-10-20 00:10:00",262401,3.222,133.9,0.846,0.053,14.49,105.9294,14.45,15.33,24.28,0,110.5,13.29,15.25,95.9
"2010-10-20 00:10:30",262402,3.271,134.8,0.716,0.045,14.48,105.9314,14.46,15.31,24.26,0,110.5,13.29,15.26,96.8
"2010-10-20 00:11:00",262403,4.762,141.1,7.358,1.425,17.08,105.926,14.44,15.5,24.39,0,110.5,13.25,15.25,103.1
"2010-10-20 00:11:30",262404,3.333,134.3,0.874,0.067,14.44,105.9184,14.42,15.32,24.23,0,110.5,13.29,15.23,96.3
"2010-10-20 00:12:00",262405,3.296,134.4,0.983,0.043,14.42,105.917,14.42,15.31,24.23,0,110.5,13.29,15.22,96.4
"2010-10-20 00:12:30",262406,3.323,133.3,0.843,0.014,14.6,105.9162,14.42,15.31,24.21,0,110.5,13.29,15.22,95.3
"2010-10-20 00:13:00",262407,3.358,133.6,0.559,0.045,14.71,105.9162,14.42,15.31,24.27,0,110.5,13.29,15.22,95.6
"2010-10-20 00:13:30",262408,3.229,132.4,1.699,0.127,14.87,105.9162,14.42,15.31,24.32,0,110.5,13.3,15.22,94.4
"2010-10-20 00:14:00",262409,3.115,131,2.493,0.039,15,105.9162,14.42,15.31,24.46,0,110.5,13.3,15.22,93.0
"2010-10-20 00:14:30",262410,2.972,128.7,2.523,0.075,15.23,105.9162,14.42,15.3,24.41,0,110.5,13.3,15.22,90.7
"2010-10-20 00:15:00",262411,3.848,134,6.53,1.28,17.23,105.9162,14.42,15.45,24.58,0,110.5,13.26,15.22,96.0
"2010-10-20 00:15:30",262412,3.156,126.5,1.299,0.543,15.31,105.9162,14.42,15.3,24.5,0,110.5,13.26,15.22,88.5
"2010-10-20 00:16:00",262413,3.01,131.2,1.176,0.028,14.85,105.9162,14.42,15.29,24.57,0,110.5,13.3,15.22,93.2
"2010-10-20 00:16:30",262414,2.92,129.8,0.661,0.08,14.88,105.9162,14.42,15.3,24.59,0,110.5,13.29,15.22,91.8
"2010-10-20 00:17:00",262415,3.001,132.1,1.353,0.072,15.05,105.9147,14.41,15.29,24.57,0,110.5,13.3,15.22,94.1
"2010-10-20 00:17:30",262416,3.047,133.9,0.923,0.048,15.25,105.9145,14.41,15.29,24.44,0,110.5,13.29,15.22,95.9
"2010-10-20 00:18:00",262417,4.223,140.9,6.762,1.352,17.78,105.9139,14.41,15.4,24.43,0,110.5,13.25,15.21,102.9
"2010-10-20 00:18:30",262418,3.672,138.6,6.066,1.18,16.9,105.9114,14.41,15.45,24.49,0,110.5,13.26,15.21,100.6
"2010-10-20 00:19:00",262419,2.873,134.5,2.964,0.036,15.24,105.9059,14.39,15.39,24.44,0,110.5,13.29,15.19,96.5
"2010-10-20 00:19:30",262420,3.944,141.4,7.102,1.38,16.48,105.9044,14.39,15.35,24.36,0,110.5,13.25,15.19,103.4
"2010-10-20 00:20:00",262421,2.833,137.9,1.369,0.036,14.62,105.9062,14.39,15.34,24.42,0,110.5,13.29,15.19,99.9
"2010-10-20 00:20:30",262422,2.828,135.8,1.121,0.081,14.44,105.9084,14.4,15.29,24.41,0,110.5,13.3,15.20,97.8
"2010-10-20 00:21:00",262423,2.68,133.6,0.777,0.047,14.58,105.9066,14.39,15.28,24.37,0,110.5,13.3,15.20,95.6
"2010-10-20 00:21:30",262424,2.749,134.6,1.08,0.08,14.66,105.908,14.4,15.28,24.42,0,110.5,13.3,15.20,96.6
"2010-10-20 00:22:00",262425,3.966,139.4,6.26,1.335,17.23,105.908,14.4,15.44,24.59,0,110.5,13.27,15.20,101.4
"2010-10-20 00:22:30",262426,3.111,134.3,3.657,0.853,15.19,105.9131,14.41,15.28,24.53,0,110.5,13.27,15.21,96.3
"2010-10-20 00:23:00",262427,2.865,134.9,1.096,0.075,14.62,105.9173,14.42,15.28,24.66,0,110.4,13.31,15.22,96.9
"2010-10-20 00:23:30",262428,2.974,134.8,2.56,0.505,14.87,105.9182,14.42,15.32,24.69,0,110.4,13.31,15.23,96.8
"2010-10-20 00:24:00",262429,3.989,139.7,5.917,1.404,16.37,105.9182,14.42,15.33,24.72,0,110.4,13.27,15.23,101.7
"2010-10-20 00:24:30",262430,3.722,141.5,6.591,1.33,16.49,105.9182,14.42,15.36,24.76,0,110.4,13.27,15.23,103.5
"2010-10-20 00:25:00",262431,2.745,136.2,0.544,0.032,14.57,105.9182,14.42,15.26,24.64,0,110.4,13.31,15.23,98.2
"2010-10-20 00:25:30",262432,2.716,135.9,0.552,0.022,14.57,105.9182,14.42,15.26,24.64,0,110.4,13.31,15.23,97.9
"2010-10-20 00:26:00",262433,2.799,135.3,0.913,0.05,14.76,105.9182,14.42,15.28,24.64,0,110.4,13.31,15.23,97.3
"2010-10-20 00:26:30",262434,2.802,134.7,0.53,0.051,14.92,105.9182,14.42,15.26,24.64,0,110.4,13.32,15.23,96.7
"2010-10-20 00:27:00",262435,2.796,134.5,0.823,0.063,15.09,105.9182,14.42,15.25,24.67,0,110.4,13.32,15.23,96.5
"2010-10-20 00:27:30",262436,2.84,136.1,0.732,0.033,15.27,105.9182,14.42,15.28,24.62,0,110.4,13.32,15.23,98.1
"2010-10-20 00:28:00",262437,4.087,142.4,7.051,1.373,17.36,105.9182,14.42,15.4,24.66,0,110.4,13.28,15.23,104.4
"2010-10-20 00:28:30",262438,2.795,135.8,0.898,0.036,15.09,105.9182,14.42,15.28,24.56,0,110.4,13.32,15.23,97.8
"2010-10-20 00:29:00",262439,2.998,137,3.849,0.683,15.44,105.9182,14.42,15.39,24.68,0,110.4,13.28,15.23,99.0
"2010-10-20 00:29:30",262440,3.809,139.7,7.163,1.318,16.04,105.9182,14.42,15.34,24.61,0,110.4,13.28,15.23,101.7
"2010-10-20 00:30:00",262441,3.477,139.9,6.192,1.167,16.22,105.9182,14.42,15.37,24.68,0,110.4,13.28,15.23,101.9
"2010-10-20 00:30:30",262442,2.797,135.9,0.782,0.064,14.45,105.9176,14.42,15.28,24.63,0,110.4,13.32,15.22,97.9
"2010-10-20 00:31:00",262443,2.764,135.3,1.1,0.026,14.56,105.912,14.41,15.28,24.62,0,110.4,13.32,15.21,97.3
"2010-10-20 00:31:30",262444,2.795,133,0.859,0.037,14.77,105.9069,14.39,15.26,24.6,0,110.4,13.32,15.20,95.0
"2010-10-20 00:32:00",262445,3.926,140.2,7.299,1.384,16.96,105.9052,14.39,15.34,24.76,0,110.4,13.28,15.19,102.2
"2010-10-20 00:32:30",262446,4.039,141.2,6.755,1.365,17.1,105.9066,14.39,15.4,24.9,0,110.4,13.28,15.20,103.2
"2010-10-20 00:33:00",262447,4.206,138.8,7.626,1.395,17.21,105.9021,14.38,15.41,24.9,0,110.4,13.28,15.18,100.8
"2010-10-20 00:33:30",262448,2.985,132.6,1.477,0.119,14.43,105.9021,14.38,15.27,24.7,0,110.4,13.31,15.18,94.6
"2010-10-20 00:34:00",262449,3.175,132.3,0.602,0.048,14.08,105.8974,14.37,15.26,24.66,0,110.4,13.31,15.17,94.3
"2010-10-20 00:34:30",262450,2.976,132,0.56,0.077,14.05,105.8901,14.35,15.26,24.7,0,110.4,13.31,15.15,94.0
"2010-10-20 00:35:00",262451,3.056,131.7,0.555,0.048,14.31,105.8867,14.34,15.27,24.67,0,110.4,13.31,15.14,93.7
"2010-10-20 00:35:30",262452,3.027,132.1,0.479,0.028,14.7,105.8885,14.35,15.26,24.62,0,110.4,13.31,15.15,94.1
"2010-10-20 00:36:00",262453,3.08,131.7,0.481,0.037,14.95,105.8945,14.36,15.25,24.68,0,110.4,13.32,15.16,93.7
"2010-10-20 00:36:30",262454,3.065,132,0.589,0.032,15.08,105.8978,14.37,15.26,24.71,0,110.4,13.32,15.17,94.0
"2010-10-20 00:37:00",262455,3.844,136.1,6.141,1.222,16.3,105.9022,14.38,15.26,24.75,0,110.4,13.28,15.18,98.1
"2010-10-20 00:37:30",262456,4.214,138.2,7.458,1.381,17.37,105.9058,14.39,15.42,24.92,0,110.4,13.28,15.19,100.2
"2010-10-20 00:38:00",262457,2.935,131.1,0.491,0.043,14.87,105.9091,14.4,15.26,24.77,0,110.4,13.32,15.20,93.1
"2010-10-20 00:38:30",262458,3.056,133.5,4.002,0.719,15.46,105.9109,14.4,15.33,24.86,0,110.4,13.29,15.21,95.5
"2010-10-20 00:39:00",262459,3.764,133.7,6.91,1.31,16.53,105.9118,14.41,15.35,24.91,0,110.4,13.28,15.21,95.7
"2010-10-20 00:39:30",262460,3.92,134,6.719,1.332,16.95,105.9139,14.41,15.36,24.96,0,110.4,13.28,15.21,96.0
"2010-10-20 00:40:00",262461,2.9,128.4,0.589,0.046,14.83,105.9145,14.41,15.26,24.88,0,110.4,13.33,15.22,90.4
"2010-10-20 00:40:30",262462,4.063,135.6,7.228,1.357,16.73,105.9181,14.42,15.42,25.01,0,110.4,13.29,15.23,97.6
"2010-10-20 00:41:00",262463,2.813,127.8,1.187,0.061,14.52,105.9196,14.43,15.35,24.9,0,110.4,13.33,15.23,89.8
"2010-10-20 00:41:30",262464,2.744,126.9,0.69,0.038,14.36,105.9193,14.43,15.27,24.79,0,110.4,13.33,15.23,88.9
"2010-10-20 00:42:00",262465,2.756,126.1,0.564,0.032,14.42,105.9202,14.43,15.26,24.8,0,110.4,13.33,15.23,88.1
"2010-10-20 00:42:30",262466,3.003,126.9,4.11,0.845,14.94,105.9202,14.43,15.26,24.8,0,110.4,13.29,15.23,88.9
"2010-10-20 00:43:00",262467,3.025,126,3.75,0.716,15.21,105.9202,14.43,15.37,24.99,0,110.4,13.29,15.23,88.0
"2010-10-20 00:43:30",262468,4.028,130.4,7.317,1.368,16.69,105.9202,14.43,15.31,25.02,0,110.4,13.29,15.23,92.4
"2010-10-20 00:44:00",262469,2.794,124.8,0.37,0.034,14.57,105.9202,14.43,15.27,24.96,0,110.4,13.33,15.23,86.8
"2010-10-20 00:44:30",262470,2.715,125.2,0.314,0.037,14.47,105.9202,14.43,15.26,25.06,0,110.4,13.33,15.23,87.2
"2010-10-20 00:45:00",262471,2.693,124.8,0.452,0.028,14.6,105.9202,14.43,15.26,25.1,0,110.4,13.33,15.23,86.8
"2010-10-20 00:45:30",262472,2.665,125.5,0.882,0.037,14.8,105.9202,14.43,15.26,25.11,0,110.4,13.33,15.23,87.5
"2010-10-20 00:46:00",262473,2.622,125.8,0.585,0.055,15.08,105.9199,14.43,15.25,25.14,0,110.4,13.33,15.23,87.8
"2010-10-20 00:46:30",262474,2.615,125.1,0.489,0.02,15.22,105.919,14.43,15.31,25.19,0,110.4,13.33,15.23,87.1
"2010-10-20 00:47:00",262475,3.858,131.7,6.778,1.343,17.6,105.9185,14.42,15.38,25.25,0,110.4,13.3,15.23,93.7
"2010-10-20 00:47:30",262476,2.491,125.3,0.558,0.02,14.89,105.9154,14.42,15.25,25.14,0,110.4,13.33,15.22,87.3
"2010-10-20 00:48:00",262477,2.532,124.7,0.603,0.025,14.63,105.9142,14.41,15.25,25.09,0,110.4,13.33,15.22,86.7
"2010-10-20 00:48:30",262478,3.276,127.5,5.178,1.134,16.07,105.9159,14.42,15.38,25.03,0,110.3,13.3,15.22,89.5
"2010-10-20 00:49:00",262479,3.217,125.8,5.656,1.135,15.71,105.9185,14.42,15.4,25.01,0,110.4,13.3,15.23,87.8
"2010-10-20 00:49:30",262480,3.989,131.3,7.016,1.376,17.63,105.9182,14.42,15.48,25.06,0,110.4,13.3,15.23,93.3
"2010-10-20 00:50:00",262481,3.09,125.2,4.877,1.037,14.88,105.9171,14.42,15.27,24.82,0,110.3,13.29,15.22,87.2
"2010-10-20 00:50:30",262482,2.604,122.2,0.716,0.036,14.17,105.9182,14.42,15.26,24.74,0,110.3,13.33,15.23,84.2
"2010-10-20 00:51:00",262483,2.507,122.4,0.758,0.034,14.17,105.9202,14.43,15.28,24.76,0,110.4,13.33,15.23,84.4
"2010-10-20 00:51:30",262484,2.499,121.1,0.543,0.004,14.25,105.9202,14.43,15.28,24.72,0,110.3,13.33,15.23,83.1
"2010-10-20 00:52:00",262485,2.477,121.4,0.4,0.034,14.46,105.9199,14.43,15.29,24.68,0,110.3,13.33,15.23,83.4
"2010-10-20 00:52:30",262486,2.404,121.1,0.531,0.03,14.7,105.9202,14.43,15.28,24.67,0,110.3,13.33,15.23,83.1
"2010-10-20 00:53:00",262487,2.349,121.5,0.268,0.047,14.92,105.919,14.43,15.29,24.66,0,110.3,13.33,15.23,83.5
"2010-10-20 00:53:30",262488,2.284,121.3,0.603,0.025,15.16,105.9185,14.42,15.29,24.7,0,110.3,13.33,15.23,83.3
"2010-10-20 00:54:00",262489,3.564,128.1,7.16,1.371,17.42,105.9168,14.42,15.45,24.92,0,110.3,13.29,15.22,90.1
"2010-10-20 00:54:30",262490,2.218,121.5,0.694,0.012,15.31,105.9166,14.42,15.38,24.86,0,110.3,13.33,15.22,83.5
"2010-10-20 00:55:00",262491,2.18,121.4,0.682,0.04,15.03,105.9143,14.41,15.3,24.78,0,110.3,13.33,15.22,83.4
"2010-10-20 00:55:30",262492,2.17,127.2,3.82,0.038,14.74,105.9098,14.4,15.29,24.85,0,110.3,13.33,15.20,89.2
"2010-10-20 00:56:00",262493,2.135,126.3,1.476,0.038,14.94,105.8963,14.37,15.28,24.87,0,110.3,13.33,15.17,88.3
"2010-10-20 00:56:30",262494,2.212,127.9,1.098,0.506,15.04,105.8887,14.35,15.27,24.87,0,110.3,13.3,15.15,89.9
"2010-10-20 00:57:00",262495,3.299,135.8,6.562,1.335,17.52,105.8908,14.35,15.45,24.99,0,110.3,13.3,15.16,97.8
"2010-10-20 00:57:30",262496,2.064,130.3,0.952,0.036,14.84,105.8929,14.36,15.27,24.82,0,110.3,13.34,15.16,92.3
"2010-10-20 00:58:00",262497,2.026,128.5,2.243,0.093,14.75,105.8965,14.37,15.27,24.77,0,110.3,13.34,15.17,90.5
"2010-10-20 00:58:30",262498,1.914,130.4,1.54,0.032,14.86,105.8971,14.37,15.26,24.83,0,110.3,13.34,15.17,92.4
"2010-10-20 00:59:00",262499,3.199,136.3,6.9,1.396,17.45,105.8977,14.37,15.52,25.07,0,110.4,13.3,15.17,98.3
"2010-10-20 00:59:30",262500,3.961,138.9,6.71,1.217,18.6,105.8986,14.37,15.47,25.01,0,110.4,13.3,15.18,100.9
"2010-10-20 01:00:00",262501,1.926,130.6,1.398,0.042,14.29,105.8974,14.37,15.26,24.81,0,110.4,13.34,15.17,92.6
"2010-10-20 01:00:30",262502,1.964,128.4,1.727,0.034,13.98,105.898,14.37,15.26,24.84,0,110.3,13.34,15.17,90.4
"2010-10-20 01:01:00",262503,1.997,126.4,1.323,0.03,14.02,105.9007,14.38,15.25,24.8,0,110.3,13.34,15.18,88.4
"2010-10-20 01:01:30",262504,1.974,125.9,0.744,0.036,14.1,105.8995,14.38,15.25,24.81,0,110.3,13.34,15.18,87.9
"2010-10-20 01:02:00",262505,1.995,127.2,0.631,0.019,14.26,105.9036,14.39,15.25,24.86,0,110.3,13.34,15.19,89.2
"2010-10-20 01:02:30",262506,1.934,127.8,0.429,0.026,14.53,105.9042,14.39,15.26,24.96,0,110.3,13.35,15.19,89.8
"2010-10-20 01:03:00",262507,1.943,126.3,0.508,0.032,14.73,105.9087,14.4,15.25,25.09,0,110.3,13.35,15.20,88.3
"2010-10-20 01:03:30",262508,1.919,126.9,0.504,0.027,14.97,105.9108,14.4,15.24,25.18,0,110.3,13.35,15.21,88.9
"2010-10-20 01:04:00",262509,1.865,128.2,0.475,0.022,15.19,105.9124,14.41,15.24,25.08,0,110.3,13.35,15.21,90.2
"2010-10-20 01:04:30",262510,1.795,127.9,0.473,0.014,15.37,105.9131,14.41,15.29,25.13,0,110.3,13.35,15.21,89.9
"2010-10-20 01:05:00",262511,3.136,133.1,8.2,1.356,18.03,105.9149,14.41,15.34,25.17,0,110.3,13.31,15.22,95.1
"2010-10-20 01:05:30",262512,2.095,127.5,4.482,0.865,16.41,105.9131,14.41,15.42,25.25,0,110.3,13.31,15.21,89.5
"2010-10-20 01:06:00",262513,1.731,125.1,0.416,0.019,15.02,105.914,14.41,15.23,25.09,0,110.3,13.35,15.21,87.1
"2010-10-20 01:06:30",262514,1.655,123.6,0.751,0.041,14.81,105.9114,14.41,15.23,25.05,0,110.3,13.34,15.21,85.6
"2010-10-20 01:07:00",262515,1.667,121.7,0.694,0.014,14.94,105.912,14.41,15.23,25,0,110.4,13.34,15.21,83.7
"2010-10-20 01:07:30",262516,2.792,127.1,6.759,1.344,17.21,105.9108,14.4,15.4,25.2,0,110.3,13.3,15.21,89.1
"2010-10-20 01:08:00",262517,1.689,120.3,0.964,0.035,14.93,105.9137,14.41,15.25,24.99,0,110.4,13.3,15.21,82.3
"2010-10-20 01:08:30",262518,2.094,123,5.442,1.018,15.54,105.9154,14.42,15.24,24.93,0,110.4,13.3,15.22,85.0
"2010-10-20 01:09:00",262519,2.068,122.9,5.13,0.965,15.32,105.9165,14.42,15.37,24.94,0,110.4,13.3,15.22,84.9
"2010-10-20 01:09:30",262520,2.689,126.3,6.99,1.34,15.56,105.9157,14.42,15.26,24.89,0,110.3,13.3,15.22,88.3
"2010-10-20 01:10:00",262521,2.27,125.8,7.248,1.17,15.69,105.9134,14.41,15.39,25.09,0,110.4,13.3,15.21,87.8
"2010-10-20 01:10:30",262522,2.077,124.9,6.246,1.065,14.77,105.9103,14.4,15.24,25.05,0,110.4,13.3,15.21,86.9
"2010-10-20 01:11:00",262523,1.594,121.3,0.755,0.002,13.91,105.9083,14.4,15.24,24.98,0,110.3,13.34,15.20,83.3
"2010-10-20 01:11:30",262524,1.539,120.8,0.603,0.032,13.89,105.9061,14.39,15.24,25.04,0,110.4,13.34,15.19,82.8
"2010-10-20 01:12:00",262525,1.558,122.4,0.987,0.038,13.98,105.9044,14.39,15.25,25.09,0,110.3,13.35,15.19,84.4
"2010-10-20 01:12:30",262526,1.631,122.8,1.12,0.037,14.24,105.9016,14.38,15.24,25.11,0,110.4,13.35,15.18,84.8
"2010-10-20 01:13:00",262527,1.575,124.6,0.679,0.047,14.35,105.8993,14.37,15.26,25.15,0,110.3,13.35,15.18,86.6
"2010-10-20 01:13:30",262528,1.553,125.7,1.24,0.036,14.55,105.8968,14.37,15.25,25.17,0,110.3,13.35,15.17,87.7
"2010-10-20 01:14:00",262529,1.53,127.1,0.712,0.013,14.73,105.8937,14.36,15.26,25.18,0,110.3,13.35,15.16,89.1
"2010-10-20 01:14:30",262530,1.493,127,1.532,0.036,14.9,105.8959,14.37,15.23,25.07,0,110.3,13.35,15.17,89.0
"2010-10-20 01:15:00",262531,1.555,129,0.622,0.041,15.14,105.8985,14.37,15.25,25.07,0,110.3,13.35,15.18,91.0
"2010-10-20 01:15:30",262532,1.525,130.3,0.759,0.022,15.29,105.8996,14.38,15.24,25.24,0,110.3,13.35,15.18,92.3
"2010-10-20 01:16:00",262533,1.524,131.2,0.423,0.028,15.39,105.892,14.36,15.25,25.45,0,110.3,13.35,15.16,93.2
"2010-10-20 01:16:30",262534,1.648,132.3,2.554,0.697,15.55,105.8897,14.35,15.24,25.51,0,110.3,13.32,15.15,94.3
"2010-10-20 01:17:00",262535,2.754,140.3,7.508,1.387,18.07,105.8883,14.35,15.41,25.72,0,110.3,13.32,15.15,102.3
"2010-10-20 01:17:30",262536,1.45,133.8,0.551,0.014,15.38,105.8886,14.35,15.24,25.61,0,110.3,13.36,15.15,95.8
"2010-10-20 01:18:00",262537,1.387,132.9,0.716,0.026,14.94,105.8883,14.35,15.24,25.66,0,110.3,13.36,15.15,94.9
"2010-10-20 01:18:30",262538,1.836,137.4,5.989,1.036,16.03,105.8883,14.35,15.35,25.84,0,110.3,13.32,15.15,99.4
"2010-10-20 01:19:00",262539,2.18,140,5.995,1.289,16.14,105.8883,14.35,15.29,25.8,0,110.3,13.32,15.15,102.0
"2010-10-20 01:19:30",262540,1.686,139,5.3,0.936,15.65,105.8883,14.35,15.38,25.9,0,110.3,13.32,15.15,101.0
"2010-10-20 01:20:00",262541,2.515,141.6,7.091,1.359,16.37,105.8883,14.35,15.38,25.89,0,110.3,13.32,15.15,103.6
"2010-10-20 01:20:30",262542,1.297,135.4,0.413,0.034,14.01,105.8883,14.35,15.24,25.75,0,110.3,13.36,15.15,97.4
"2010-10-20 01:21:00",262543,1.719,136.9,4.475,0.973,14.27,105.8883,14.35,15.24,25.72,0,110.3,13.32,15.15,98.9
"2010-10-20 01:21:30",262544,2.428,140.5,7.14,1.362,15.52,105.8883,14.35,15.39,25.92,0,110.3,13.32,15.15,102.5
"2010-10-20 01:22:00",262545,1.312,135.6,0.612,0.014,13.46,105.8883,14.35,15.23,26.09,0,110.3,13.36,15.15,97.6
"2010-10-20 01:22:30",262546,1.267,136.7,0.435,0.033,13.44,105.8883,14.35,15.23,26.31,0,110.3,13.35,15.15,98.7
"2010-10-20 01:23:00",262547,1.246,136.7,0.697,0.003,13.73,105.8883,14.35,15.23,26.45,0,110.3,13.35,15.15,98.7
"2010-10-20 01:23:30",262548,1.242,136.9,0.544,0.025,13.86,105.8883,14.35,15.23,26.5,0,110.3,13.35,15.15,98.9
"2010-10-20 01:24:00",262549,1.236,137.1,0.427,0.03,14.09,105.8875,14.34,15.22,26.48,0,110.3,13.35,15.15,99.1
"2010-10-20 01:24:30",262550,1.211,136.2,0.549,0.033,14.33,105.8872,14.34,15.21,26.39,0,110.3,13.35,15.15,98.2
"2010-10-20 01:25:00",262551,1.258,135.4,0.862,0.035,14.54,105.8861,14.34,15.2,26.27,0,110.3,13.35,15.14,97.4
"2010-10-20 01:25:30",262552,1.304,135.7,0.288,0.032,14.81,105.8861,14.34,15.2,26.32,0,110.3,13.35,15.14,97.7
"2010-10-20 01:26:00",262553,1.377,136,0.865,0.026,14.98,105.8807,14.33,15.21,26.47,0,110.3,13.35,15.13,98.0
"2010-10-20 01:26:30",262554,1.387,136,0.481,0.002,15.08,105.8783,14.32,15.21,26.5,0,110.3,13.35,15.12,98.0
"2010-10-20 01:27:00",262555,1.342,138.7,0.919,0.027,15.19,105.8659,14.29,15.19,26.6,0,110.3,13.35,15.09,100.7
"2010-10-20 01:27:30",262556,1.359,140.4,0.497,0.03,15.36,105.8592,14.27,15.2,26.55,0,110.3,13.35,15.07,102.4
"2010-10-20 01:28:00",262557,1.375,140.9,0.751,0.03,15.51,105.8616,14.28,15.2,26.54,0,110.3,13.36,15.08,102.9
"2010-10-20 01:28:30",262558,1.805,142,5.116,0.96,15.93,105.8611,14.28,15.24,26.75,0,110.3,13.33,15.08,104.0
"2010-10-20 01:29:00",262559,2.752,146.1,7.281,1.366,17.94,105.8634,14.28,15.32,26.93,0,110.3,13.33,15.08,108.1
"2010-10-20 01:29:30",262560,1.387,138.7,0.598,0.002,15.24,105.864,14.28,15.17,26.85,0,110.3,13.36,15.09,100.7
"2010-10-20 01:30:00",262561,1.549,138.4,3.569,0.662,15.3,105.8667,14.29,15.2,26.93,0,110.3,13.33,15.09,100.4
"2010-10-20 01:30:30",262562,2.284,140.1,6.84,1.294,16.17,105.8677,14.29,15.18,27.07,0,110.3,13.33,15.10,102.1
"2010-10-20 01:31:00",262563,2.905,145.9,7.062,1.372,17.47,105.8588,14.27,15.33,27.26,0,110.3,13.33,15.07,107.9
"2010-10-20 01:31:30",262564,1.281,140.3,0.744,0.036,14.1,105.8483,14.24,15.23,26.93,0,110.3,13.36,15.05,102.3
"2010-10-20 01:32:00",262565,2.47,145.9,7.493,1.368,15.65,105.8397,14.22,15.28,27,0,110.3,13.33,15.02,107.9
"2010-10-20 01:32:30",262566,1.227,142.6,1.411,0.034,13.22,105.8397,14.22,15.13,26.9,0,110.3,13.36,15.02,104.6
"2010-10-20 01:33:00",262567,1.27,143.7,0.566,0.036,13.15,105.8427,14.23,15.11,26.84,0,110.3,13.36,15.03,105.7
"2010-10-20 01:33:30",262568,1.247,144,0.485,0.012,13.21,105.8463,14.24,15.12,26.8,0,110.3,13.36,15.04,106.0
"2010-10-20 01:34:00",262569,1.187,146,0.764,0.032,13.45,105.8449,14.24,15.1,26.8,0,110.3,13.36,15.04,108.0
"2010-10-20 01:34:30",262570,1.157,148.3,0.636,0.028,13.7,105.8374,14.22,15.09,26.9,0,110.3,13.36,15.02,110.3
"2010-10-20 01:35:00",262571,1.104,149.5,0.698,0.026,13.85,105.8197,14.17,15.07,26.91,0,110.3,13.36,14.97,111.5
"2010-10-20 01:35:30",262572,1.099,148.3,0.625,0.019,14.01,105.8172,14.16,15.06,27.05,0,110.3,13.36,14.97,110.3
"2010-10-20 01:36:00",262573,1.094,148.8,0.457,0,14.22,105.8193,14.17,15.05,27.2,0,110.3,13.36,14.97,110.8
"2010-10-20 01:36:30",262574,1.119,149.6,0.321,0.036,14.44,105.8193,14.17,15.05,27.15,0,110.3,13.37,14.97,111.6
"2010-10-20 01:37:00",262575,1.22,150.7,0.569,0.063,14.86,105.8205,14.17,15.05,26.9,0,110.3,13.37,14.97,112.7
"2010-10-20 01:37:30",262576,1.265,153.2,1.71,0.033,15.28,105.8288,14.19,15.05,26.69,0,110.3,13.37,15.00,115.2
"2010-10-20 01:38:00",262577,1.243,156.2,1.018,0.014,15.39,105.8438,14.23,15.05,26.75,0,110.3,13.37,15.03,118.2
"2010-10-20 01:38:30",262578,1.213,158.7,0.7,0.037,15.46,105.8483,14.24,15.05,26.78,0,110.3,13.37,15.05,120.7
"2010-10-20 01:39:00",262579,1.215,161,1.067,0.037,15.58,105.8514,14.25,15.05,26.67,0,110.3,13.37,15.05,123.0
"2010-10-20 01:39:30",262580,1.144,163.1,1.098,0.033,15.45,105.8534,14.26,15.13,26.76,0,110.3,13.36,15.06,125.1
"2010-10-20 01:40:00",262581,2.275,170.2,7.352,1.358,17.73,105.8505,14.25,15.15,26.69,0,110.3,13.33,15.05,132.2
"2010-10-20 01:40:30",262582,1.444,167.2,4.762,0.837,16.61,105.8497,14.25,15.21,26.76,0,110.3,13.33,15.05,129.2
"2010-10-20 01:41:00",262583,1.111,166,0.699,0.007,15.43,105.8415,14.23,15.08,26.58,0,110.3,13.36,15.03,128.0
"2010-10-20 01:41:30",262584,2.175,170.4,6.737,1.318,17.03,105.8376,14.22,15.21,26.88,0,110.3,13.33,15.02,132.4
"2010-10-20 01:42:00",262585,1.842,169.8,6.204,1.219,16.03,105.8328,14.2,15.18,26.93,0,110.3,13.33,15.01,131.8
"2010-10-20 01:42:30",262586,1.844,171.4,7.965,1.215,15.93,105.8249,14.18,15.21,27,0,110.3,13.33,14.99,133.4
"2010-10-20 01:43:00",262587,2.699,176.2,7.665,1.37,16.48,105.8232,14.18,15.2,26.84,0,110.3,13.32,14.98,138.2
"2010-10-20 01:43:30",262588,1.247,168.2,3.738,0.55,14.1,105.8226,14.18,15.19,27.03,0,110.3,13.32,14.98,130.2
"2010-10-20 01:44:00",262589,1.105,167.4,0.493,0.004,13.07,105.8226,14.18,15.05,27.08,0,110.3,13.36,14.98,129.4
"2010-10-20 01:44:30",262590,1.102,166.7,0.269,0.004,13.06,105.8226,14.18,15.03,27.19,0,110.3,13.36,14.98,128.7
"2010-10-20 01:45:00",262591,1.097,166.3,0.526,0.005,13.17,105.8226,14.18,15.04,27.27,0,110.3,13.36,14.98,128.3
"2010-10-20 01:45:30",262592,1.074,166.6,0.471,0.033,13.43,105.8226,14.18,15.05,27.31,0,110.3,13.37,14.98,128.6
"2010-10-20 01:46:00",262593,1.094,167,0.76,0.025,13.77,105.8226,14.18,15.04,27.3,0,110.3,13.37,14.98,129.0
"2010-10-20 01:46:30",262594,1.04,169.5,0.513,0.015,13.92,105.8226,14.18,15.03,27.11,0,110.3,13.37,14.98,131.5
"2010-10-20 01:47:00",262595,1.029,168.1,0.979,0.042,14.19,105.8226,14.18,15.03,27.1,0,110.3,13.37,14.98,130.1
"2010-10-20 01:47:30",262596,1.01,169,0.817,0.036,14.36,105.8226,14.18,15.02,27.12,0,110.3,13.37,14.98,131.0
"2010-10-20 01:48:00",262597,1.044,168.7,0.503,0.014,14.61,105.8226,14.18,15.01,27.14,0,110.3,13.38,14.98,130.7